| time (UTC) | temp C | wind direction | speed KPH | gust KPH | rain 1hr cm | rain 24hr cm | rain mn cm | humidity % | barometer mb |
| 20260507041725 | 6 | 180 | 4.8 | 8.0 | 0.00 | 0.00 | 0.00 | 94 | 1024.3 |
| 20260507040727 | 6 | 180 | 4.8 | 6.4 | 0.00 | 0.00 | 0.00 | 94 | 1024.3 |
| 20260507034824 | 7 | 180 | 3.2 | 8.0 | 0.00 | 0.00 | 0.00 | 94 | 1024.2 |
| 20260507033824 | 7 | 180 | 4.8 | 9.7 | 0.00 | 0.00 | 0.00 | 93 | 1024.2 |
| 20260507032826 | 7 | 180 | 4.8 | 8.0 | 0.00 | 0.00 | 0.00 | 93 | 1024.1 |
| 20260507031825 | 7 | 180 | 1.6 | 4.8 | 0.00 | 0.00 | 0.00 | 93 | 1024.1 |
| 20260507031725 | 7 | 180 | 1.6 | 6.4 | 0.00 | 0.00 | 0.00 | 92 | 1024.1 |
| 20260507030724 | 7 | 180 | 3.2 | 8.0 | 0.00 | 0.00 | 0.00 | 93 | 1024.0 |
| 20260507025823 | 7 | 180 | 4.8 | 8.0 | 0.00 | 0.00 | 0.00 | 93 | 1023.9 |
| 20260507025724 | 7 | 180 | 4.8 | 6.4 | 0.00 | 0.00 | 0.00 | 93 | 1024.0 |
| 20260507025626 | 7 | 180 | 3.2 | 8.0 | 0.00 | 0.00 | 0.00 | 93 | 1024.0 |
| 20260507024724 | 7 | 180 | 1.6 | 6.4 | 0.00 | 0.00 | 0.00 | 93 | 1024.0 |
| 20260507023630 | 7 | 180 | 3.2 | 8.0 | 0.00 | 0.00 | 0.00 | 93 | 1023.9 |
| 20260507022627 | 7 | 180 | 3.2 | 8.0 | 0.00 | 0.00 | 0.00 | 93 | 1024.0 |
| 20260507021625 | 7 | 180 | 3.2 | 6.4 | 0.00 | 0.00 | 0.00 | 93 | 1023.8 |
| 20260507020626 | 7 | 180 | 3.2 | 6.4 | 0.00 | 0.00 | 0.00 | 93 | 1023.7 |
| 20260507015628 | 7 | 180 | 1.6 | 4.8 | 0.00 | 0.00 | 0.00 | 93 | 1023.7 |
| 20260507012726 | 8 | 180 | 4.8 | 9.7 | 0.00 | 0.00 | 0.00 | 93 | 1023.4 |
| 20260507011724 | 8 | 180 | 1.6 | 4.8 | 0.00 | 0.00 | 0.00 | 93 | 1023.4 |
| 20260507011625 | 8 | 180 | 3.2 | 8.0 | 0.00 | 0.00 | 0.00 | 93 | 1023.4 |
| 20260507010724 | 8 | 180 | 0.0 | 1.6 | 0.00 | 0.00 | 0.00 | 93 | 1023.4 |
| 20260507005724 | 8 | 180 | 4.8 | 8.0 | 0.00 | 0.00 | 0.00 | 94 | 1023.5 |
| 20260507004725 | 8 | 180 | 1.6 | 6.4 | 0.00 | 0.00 | 0.00 | 94 | 1023.3 |
| 20260507001827 | 7 | 180 | 0.0 | 0.0 | 0.00 | 0.00 | 0.00 | 93 | 1023.3 |
| 20260507000826 | 7 | 180 | 0.0 | 0.0 | 0.00 | 0.00 | 0.00 | 93 | 1023.2 |
| 20260506235825 | 8 | 180 | 0.0 | 1.6 | 0.00 | 0.00 | 0.00 | 93 | 1023.2 |
| 20260506234825 | 8 | 180 | 0.0 | 0.0 | 0.00 | 0.00 | 0.00 | 93 | 1023.2 |
| 20260506233825 | 8 | 180 | 3.2 | 4.8 | 0.00 | 0.00 | 0.00 | 93 | 1023.2 |
| 20260506232824 | 8 | 180 | 3.2 | 6.4 | 0.00 | 0.00 | 0.00 | 93 | 1023.0 |
| 20260506225824 | 8 | 180 | 4.8 | 9.7 | 0.00 | 0.00 | 0.00 | 94 | 1022.9 |
| 20260506224825 | 8 | 180 | 1.6 | 4.8 | 0.00 | 0.00 | 0.00 | 94 | 1022.8 |
| 20260506224725 | 8 | 180 | 3.2 | 6.4 | 0.00 | 0.00 | 0.00 | 94 | 1022.8 |
| 20260506223725 | 8 | 180 | 3.2 | 6.4 | 0.00 | 0.00 | 0.00 | 95 | 1022.8 |
| 20260506222725 | 8 | 180 | 4.8 | 8.0 | 0.00 | 0.00 | 0.00 | 95 | 1022.8 |
| 20260506221825 | 8 | 180 | 4.8 | 8.0 | 0.00 | 0.00 | 0.00 | 94 | 1022.7 |
| 20260506220827 | 8 | 180 | 1.6 | 3.2 | 0.00 | 0.00 | 0.00 | 94 | 1022.8 |
| 20260506215834 | 8 | 180 | 3.2 | 4.8 | 0.00 | 0.00 | 0.00 | 94 | 1022.8 |
| 20260506214837 | 8 | 180 | 1.6 | 3.2 | 0.00 | 0.00 | 0.00 | 94 | 1022.7 |
| 20260506212934 | 8 | 180 | 3.2 | 3.2 | 0.00 | 0.00 | 0.00 | 94 | 1022.5 |
| 20260506210937 | 7 | 180 | 4.8 | 6.4 | 0.00 | 0.00 | 0.00 | 93 | 1022.6 |
| 20260506205935 | 7 | 180 | 3.2 | 3.2 | 0.00 | 0.00 | 0.00 | 93 | 1022.6 |
| 20260506205834 | 7 | 180 | 0.0 | 3.2 | 0.00 | 0.00 | 0.00 | 93 | 1022.6 |
| 20260506204835 | 7 | 180 | 0.0 | 0.0 | 0.00 | 0.00 | 0.00 | 93 | 1022.5 |
| 20260506203836 | 7 | 180 | 1.6 | 3.2 | 0.00 | 0.00 | 0.00 | 93 | 1022.5 |
| 20260506203735 | 7 | 180 | 3.2 | 4.8 | 0.00 | 0.00 | 0.00 | 93 | 1022.5 |
| 20260506202736 | 7 | 180 | 3.2 | 3.2 | 0.00 | 0.00 | 0.00 | 93 | 1022.5 |
| 20260506201735 | 7 | 180 | 0.0 | 0.0 | 0.00 | 0.00 | 0.00 | 92 | 1022.4 |
| 20260506200833 | 8 | 180 | 0.0 | 0.0 | 0.00 | 0.00 | 0.00 | 92 | 1022.3 |
| 20260506195836 | 8 | 180 | 0.0 | 1.6 | 0.00 | 0.00 | 0.00 | 92 | 1022.2 |
| 20260506194835 | 8 | 180 | 1.6 | 3.2 | 0.00 | 0.00 | 0.00 | 92 | 1022.3 |
| 20260506193835 | 8 | 180 | 0.0 | 1.6 | 0.00 | 0.00 | 0.00 | 92 | 1022.1 |
| 20260506192836 | 8 | 180 | 3.2 | 4.8 | 0.00 | 0.00 | 0.00 | 92 | 1022.0 |
| 20260506191934 | 8 | 180 | 0.0 | 0.0 | 0.00 | 0.00 | 0.00 | 91 | 1021.9 |
| 20260506190936 | 8 | 180 | 1.6 | 4.8 | 0.00 | 0.00 | 0.00 | 91 | 1021.8 |
| 20260506185934 | 8 | 180 | 3.2 | 6.4 | 0.00 | 0.00 | 0.00 | 91 | 1021.7 |
| 20260506185833 | 8 | 180 | 1.6 | 4.8 | 0.00 | 0.00 | 0.00 | 91 | 1021.8 |
| 20260506185736 | 8 | 151 | 1.6 | 4.8 | 0.00 | 0.00 | 0.00 | 91 | 1021.7 |
| 20260506184834 | 8 | 176 | 4.8 | 8.0 | 0.00 | 0.00 | 0.00 | 92 | 1021.6 |
| 20260506183834 | 8 | 180 | 3.2 | 11.3 | 0.00 | 0.00 | 0.00 | 93 | 1021.4 |
| 20260506183733 | 8 | 180 | 3.2 | 11.3 | 0.00 | 0.00 | 0.00 | 93 | 1021.4 |
| 20260506182736 | 8 | 180 | 3.2 | 6.4 | 0.00 | 0.00 | 0.00 | 94 | 1021.4 |
| 20260506175836 | 8 | 178 | 6.4 | 11.3 | 0.00 | 0.00 | 0.00 | 96 | 1021.0 |
| 20260506174935 | 8 | 180 | 3.2 | 8.0 | 0.00 | 0.00 | 0.00 | 96 | 1020.8 |
| 20260506174033 | 8 | 180 | 3.2 | 4.8 | 0.00 | 0.00 | 0.00 | 96 | 1020.8 |
| 20260506173035 | 8 | 180 | 3.2 | 6.4 | 0.00 | 0.00 | 0.00 | 96 | 1020.7 |
| 20260506171035 | 8 | 180 | 3.2 | 4.8 | 0.00 | 0.00 | 0.00 | 95 | 1020.6 |
| 20260506170133 | 8 | 180 | 4.8 | 9.7 | 0.00 | 0.00 | 0.00 | 95 | 1020.5 |
| 20260506170036 | 8 | 180 | 3.2 | 6.4 | 0.00 | 0.00 | 0.00 | 95 | 1020.5 |
| 20260506165035 | 8 | 161 | 4.8 | 11.3 | 0.00 | 0.00 | 0.00 | 94 | 1020.5 |
| 20260506162035 | 8 | 176 | 3.2 | 11.3 | 0.00 | 0.00 | 0.00 | 94 | 1020.4 |
| 20260506161035 | 8 | 180 | 3.2 | 8.0 | 0.00 | 0.00 | 0.00 | 94 | 1020.2 |
| 20260506160036 | 8 | 166 | 4.8 | 9.7 | 0.00 | 0.00 | 0.00 | 95 | 1020.3 |
| 20260506155938 | 8 | 180 | 0.0 | 4.8 | 0.00 | 0.00 | 0.00 | 95 | 1020.3 |
| 20260506154934 | 8 | 180 | 4.8 | 6.4 | 0.00 | 0.00 | 0.00 | 95 | 1020.3 |
| 20260506153837 | 8 | 180 | 6.4 | 9.7 | 0.00 | 0.00 | 0.00 | 95 | 1020.4 |
| 20260506152934 | 8 | 180 | 6.4 | 9.7 | 0.00 | 0.00 | 0.00 | 96 | 1020.3 |
| 20260506151935 | 8 | 180 | 6.4 | 11.3 | 0.00 | 0.00 | 0.00 | 96 | 1020.2 |
| 20260506144033 | 8 | 180 | 6.4 | 11.3 | 0.00 | 0.00 | 0.00 | 96 | 1020.0 |
| 20260506143036 | 8 | 115 | 0.0 | 8.0 | 0.00 | 0.00 | 0.00 | 96 | 1020.0 |
| 20260506142936 | 8 | 180 | 4.8 | 8.0 | 0.00 | 0.00 | 0.00 | 96 | 1020.0 |
| 20260506141037 | 8 | 180 | 6.4 | 14.5 | 0.00 | 0.00 | 0.00 | 96 | 1020.0 |
| 20260506140039 | 8 | 158 | 3.2 | 14.5 | 0.00 | 0.00 | 0.00 | 96 | 1020.0 |
| 20260506135033 | 8 | 180 | 4.8 | 9.7 | 0.00 | 0.00 | 0.00 | 96 | 1019.8 |
| 20260506134035 | 8 | 180 | 8.0 | 12.9 | 0.00 | 0.00 | 0.00 | 96 | 1019.9 |
| 20260506133037 | 8 | 101 | 1.6 | 4.8 | 0.00 | 0.00 | 0.00 | 95 | 1019.8 |
| 20260506132036 | 8 | 174 | 3.2 | 8.0 | 0.00 | 0.00 | 0.00 | 96 | 1019.8 |
| 20260506131134 | 8 | 166 | 1.6 | 4.8 | 0.00 | 0.00 | 0.00 | 96 | 1019.8 |
| 20260506130133 | 8 | 133 | 1.6 | 4.8 | 0.00 | 0.00 | 0.00 | 96 | 1019.7 |
| 20260506125135 | 8 | 180 | 1.6 | 6.4 | 0.00 | 0.00 | 0.00 | 96 | 1019.7 |
| 20260506124134 | 8 | 176 | 3.2 | 11.3 | 0.00 | 0.00 | 0.00 | 96 | 1019.7 |
| 20260506123134 | 8 | 169 | 6.4 | 11.3 | 0.00 | 0.00 | 0.00 | 96 | 1019.5 |
| 20260506122234 | 8 | 180 | 4.8 | 8.0 | 0.00 | 0.00 | 0.00 | 95 | 1019.5 |
| 20260506122135 | 8 | 180 | 4.8 | 9.7 | 0.00 | 0.00 | 0.00 | 95 | 1019.5 |
| 20260506121135 | 8 | 172 | 4.8 | 8.0 | 0.00 | 0.00 | 0.00 | 95 | 1019.5 |
| 20260506120136 | 8 | 174 | 6.4 | 14.5 | 0.00 | 0.00 | 0.00 | 95 | 1019.4 |
| 20260506114134 | 8 | 179 | 3.2 | 8.0 | 0.00 | 0.00 | 0.00 | 96 | 1019.3 |
| 20260506112137 | 8 | 172 | 4.8 | 9.7 | 0.00 | 0.00 | 0.00 | 96 | 1019.3 |
| 20260506111135 | 8 | 180 | 4.8 | 11.3 | 0.00 | 0.00 | 0.00 | 96 | 1019.2 |
| 20260506110135 | 8 | 161 | 1.6 | 6.4 | 0.00 | 0.00 | 0.00 | 95 | 1019.3 |
| 20260506105135 | 8 | 161 | 1.6 | 8.0 | 0.00 | 0.00 | 0.00 | 95 | 1019.3 |
| 20260506104135 | 8 | 166 | 6.4 | 11.3 | 0.00 | 0.00 | 0.00 | 95 | 1019.3 |
| 20260506103137 | 8 | 164 | 6.4 | 11.3 | 0.00 | 0.00 | 0.00 | 96 | 1019.2 |
| 20260506102234 | 8 | 172 | 1.6 | 4.8 | 0.00 | 0.00 | 0.00 | 96 | 1019.1 |
| 20260506101233 | 8 | 176 | 6.4 | 12.9 | 0.00 | 0.00 | 0.00 | 96 | 1019.0 |
| 20260506100235 | 8 | 158 | 3.2 | 9.7 | 0.00 | 0.00 | 0.00 | 95 | 1018.9 |
| 20260506095236 | 8 | 141 | 3.2 | 8.0 | 0.00 | 0.00 | 0.00 | 95 | 1018.8 |
| 20260506094333 | 8 | 161 | 8.0 | 14.5 | 0.00 | 0.00 | 0.00 | 96 | 1018.9 |
| 20260506093333 | 8 | 172 | 8.0 | 16.1 | 0.00 | 0.00 | 0.00 | 96 | 1018.6 |
| 20260506093235 | 8 | 178 | 6.4 | 16.1 | 0.00 | 0.00 | 0.00 | 96 | 1018.6 |
| 20260506093135 | 8 | 180 | 9.7 | 17.7 | 0.00 | 0.00 | 0.00 | 96 | 1018.6 |
| 20260506092135 | 8 | 180 | 11.3 | 20.9 | 0.00 | 0.00 | 0.00 | 97 | 1018.5 |
| 20260506091033 | 8 | 176 | 9.7 | 22.5 | 0.00 | 0.00 | 0.00 | 97 | 1018.6 |
| 20260506090038 | 8 | 176 | 8.0 | 14.5 | 0.00 | 0.00 | 0.00 | 97 | 1018.3 |
| 20260506083035 | 8 | 180 | 6.4 | 11.3 | 0.00 | 0.00 | 0.00 | 98 | 1018.1 |
| 20260506082934 | 8 | 180 | 1.6 | 8.0 | 0.00 | 0.00 | 0.00 | 98 | 1018.1 |
| 20260506081835 | 8 | 163 | 3.2 | 6.4 | 0.00 | 0.00 | 0.00 | 99 | 1018.1 |
| 20260506080933 | 8 | 180 | 4.8 | 9.7 | 0.00 | 0.00 | 0.00 | 99 | 1018.1 |
| 20260506073038 | 8 | 180 | 3.2 | 9.7 | 0.00 | 0.00 | 0.00 | 99 | 1017.9 |
| 20260506072035 | 8 | 180 | 4.8 | 11.3 | 0.00 | 0.00 | 0.00 | 99 | 1018.0 |
| 20260506071036 | 8 | 180 | 4.8 | 8.0 | 0.00 | 0.00 | 0.00 | 99 | 1017.9 |
| 20260506061835 | 8 | 178 | 9.7 | 16.1 | 0.00 | 0.00 | 0.00 | 99 | 1017.8 |
| 20260506060933 | 8 | 180 | 4.8 | 8.0 | 0.00 | 0.00 | 0.00 | 99 | 1017.8 |
| 20260506051034 | 8 | 180 | 1.6 | 6.4 | 0.00 | 0.00 | 0.00 | 99 | 1017.7 |
| 20260506045035 | 8 | 180 | 8.0 | 12.9 | 0.00 | 0.00 | 0.00 | 99 | 1017.5 |
| 20260506044034 | 8 | 180 | 8.0 | 14.5 | 0.00 | 0.00 | 0.00 | 99 | 1017.5 |
| 20260506043036 | 8 | 180 | 8.0 | 12.9 | 0.00 | 0.00 | 0.00 | 99 | 1017.6 |